Tracking 17630 objects as of 24-May-2016
HD Live streaming from Space Station
objects crossing your sky now

SINAH 1

Track SINAH 1 now!
10-day predictions
SINAH 1 is classified as:


NORAD ID: 28893
Int'l Code: 2005-043D
Perigee: 686.0 km
Apogee: 705.8 km
Inclination: 97.8 °
Period: 98.5 minutes
Semi major axis: 7066 km
RCS: 0.8773 m2 (medium)
Launch date: October 27, 2005
Source: Iran (IRAN)
Launch site: PLESETSK MISSILE AND SPACE COMPLEX (PKMTR)

Sinah 1 is an Iranian microsatellite (170 kg). Iranian press reports that it is intended for "telecommunications and research".
Your satellite tracking list
Your tracking list is empty





NASA's NSSDC Master Catalog

Two Line Element Set (TLE):
1 28893U 05043D   16144.15977476  .00000079  00000-0  24889-4 0  9995
2 28893  97.8358 315.9395 0014065 306.6716  53.3192 14.61369726563486
Source of the keplerian elements: AFSPC

N2YO: 530